Location: Asis
(14.1331°N, 120.9056°E)
Time: 16:14:21
(UTC+00:00)

CZ-3 Stage 3 - Pass Details

Date: 15 January 2026
Orbit: 206 x 9462 km, 30.8° (Epoch: 13 February)

Event Time Altitude Azimuth Distance (km) Brightness Sun altitude
Rises 11:21:22 0° 274° (W) 7,405 8.2 -22.4°
Reaches altitude 10° 11:29:55 10° 289° (WNW) 4,454 6.6 -24.4°
Maximum altitude 11:36:29 18° 328° (NNW) 2,334 4.6 -25.9°
Enters shadow 11:38:23 16° 352° (N) 2,048 4.1 -26.3°
